Location: Newark
(49.1000°N, 0.4667°W)
Time: 09:47:11
(UTC+00:00)

BEESAT 3 - Pass Details

Date: 05 July 2020
Orbit: 482 x 522 km, 64.9° (Epoch: 10 August)

Event Time Altitude Azimuth Distance (km) Brightness Sun altitude
Rises 23:49:26 0° 277° (W) 2,651 ? -18.1°
Reaches altitude 10° 23:52:36 10° 305° (NW) 1,767 ? -18.2°
Maximum altitude 23:54:39 14° 336° (NNW) 1,550 ? -18.2°
Drops below altitude 10° 23:56:42 10° 7° (N) 1,769 ? -18.2°
Sets 23:59:53 0° 35° (NE) 2,657 ? -18.2°
